#timestamp,LO_Frequency,Hit,StdDev 
1507554015.4,286047002.2,N
1507554035.3,286047005.0,N
1507554055.1,286047005.3,N
1507554056.0,286047005.3,N
1507554075.8,286047005.6,N
1507554095.7,286047006.3,N
1507554115.5,286047008.1,N
1507554135.3,286047008.0,N
1507554155.1,286047008.5,N
1507554175.9,286047008.7,N
1507554195.7,286047006.6,N
1507554215.5,286047006.4,N
1507554235.4,286047011.3,N
1507554255.2,286047006.1,N
1507554275.0,286047007.0,N
1507554275.9,286047007.0,N
1507554295.8,286047002.6,N
1507554315.6,286047000.5,N
1507554335.4,286046998.1,N
1507554355.3,286047000.9,N
1507554375.1,286047002.7,N
1507554376.0,286047002.7,N
1507554395.8,286047001.4,N
1507554415.7,286047002.9,N
1507554435.5,286047006.3,N
1507554455.3,286047007.9,N
1507554475.2,286047006.5,N
1507554495.9,286047006.8,N
1507554515.7,286047007.5,N
1507554535.5,286047006.0,N
1507554555.4,286047007.6,N
1507554575.2,286047008.2,N
1507554595.0,286047010.1,Y
1507554596.0,286047010.1,P
1507554615.8,286047003.9,N
1507554635.6,286047007.5,N
1507554655.4,286047004.2,N
1507554675.3,286047002.6,N
1507554695.1,286046998.7,N
1507554715.8,286047000.0,N
1507554735.7,286046998.2,N
1507554755.5,286047005.9,N
1507554775.3,286047001.9,N
1507554795.2,286047001.4,N
1507554815.9,286047003.0,N
1507554835.7,286047001.8,N
1507554855.6,286047003.6,N
1507554875.4,286047002.8,N
1507554895.2,286047002.4,N
1507554915.0,286046998.1,N
1507554916.0,286046998.1,N
1507554935.8,286046996.2,N
1507554955.6,286046995.8,N
1507554975.4,286046993.6,N
1507554995.3,286046999.4,N
1507555015.1,286046996.7,N
1507555035.8,286046998.0,N
1507555055.7,286046998.5,N
1507555075.5,286046993.7,N
1507555095.3,286046994.5,N
1507555115.2,286046995.8,N
1507555135.9,286046998.1,N
1507555155.7,286046998.8,N
1507555175.6,286047001.7,N
1507555195.4,286047002.1,N
1507555215.2,286047001.1,N
1507555235.1,286046998.3,N
1507555236.0,286046998.3,N
1507555255.8,286046999.6,N
1507555275.6,286046996.9,N
1507555295.4,286046999.1,N
1507555315.3,286046998.0,N
1507555335.1,286046994.0,N
1507555355.8,286046995.0,N
1507555375.7,286046999.8,N
1507555395.5,286047002.8,N
1507555415.3,286046999.6,N
1507555435.2,286046999.3,N
1507555455.9,286046997.5,N
1507555475.7,286046994.9,N
1507555495.6,286046995.7,N
1507555515.4,286046995.3,N
1507555535.2,286046995.4,N
1507555555.1,286046995.8,N
1507555556.0,286046995.8,N
1507555575.8,286046996.5,N
1507555595.6,286046995.4,N
1507555615.5,286046995.6,N
1507555635.3,286046995.1,N
1507555655.1,286046999.0,N
1507555675.8,286046999.1,N
1507555695.7,286047000.7,N
1507555715.5,286047003.2,N
1507555735.3,286047002.7,N
1507555755.2,286046998.3,N
1507555775.9,286046999.0,N
1507555795.7,286046997.0,N
1507555815.6,286046996.0,N
1507555835.4,286046997.6,N
1507555855.2,286046994.3,N
1507555875.1,286046995.7,N
1507555876.0,286046995.7,N
1507555895.8,286047002.8,N
1507555915.6,286047004.3,N
1507555935.5,286047001.9,N
1507555955.3,286047000.2,N
1507555975.1,286046995.8,N
1507555995.8,286046994.2,N
1507556015.7,286046993.3,N
1507556035.5,286046996.8,N
1507556055.3,286046993.6,N
1507556075.2,286046999.6,N
1507556095.9,286046997.7,N
1507556115.7,286046995.5,N
1507556135.6,286046999.2,N
1507556155.4,286046998.1,N
1507556175.2,286046995.5,N
1507556195.1,286046997.2,N
1507556196.0,286046997.2,N
1507556215.8,286046999.5,N
1507556235.6,286046994.5,N
1507556255.5,286046999.6,N
1507556275.3,286047001.0,N
1507556295.1,286046997.4,N
1507556315.9,286046995.8,N
1507556335.7,286046996.8,N
1507556355.5,286046995.2,N
1507556375.3,286046993.1,N
1507556395.2,286046987.4,Y
1507556415.0,286046990.7,P
1507556415.9,286046990.7,N
1507556435.8,286046993.5,N
1507556455.6,286046994.3,N
1507556475.4,286046992.1,Y
1507556495.3,286047004.1,P
1507556515.1,286047003.7,N
1507556516.0,286047003.7,N
1507556535.8,286047005.1,N
1507556555.7,286047003.2,N
1507556575.5,286047001.3,N
1507556595.3,286047005.7,N
1507556615.1,286047006.4,N
1507556635.9,286047009.5,N
1507556655.7,286047009.1,N
1507556675.5,286047008.4,N
1507556695.4,286047013.5,Y
1507556715.2,286047006.0,P
1507556735.0,286047002.9,P
1507556735.9,286047002.9,N
1507556755.8,286047005.3,Y
1507556775.6,286047002.2,P
1507556795.4,286046999.7,N
1507556815.3,286046999.2,N
1507556835.1,286047000.4,N
1507556855.8,286046995.4,N
1507556875.7,286046996.6,N
1507556895.5,286046998.9,N
1507556915.3,286046998.6,N
1507556935.2,286047002.4,N
1507556955.9,286047004.1,N
1507556975.7,286047002.9,N
1507556995.6,286047001.3,N
1507557015.4,286047000.2,N
1507557035.2,286047003.6,N
1507557055.0,286047006.9,N
1507557055.9,286047006.9,N
1507557075.8,286047004.9,N
1507557095.6,286047003.2,N
1507557115.4,286047006.8,N
1507557135.3,286047005.0,N
1507557155.1,286047005.3,N
1507557175.8,286047007.2,N
1507557195.7,286047008.5,N
1507557215.5,286047007.4,N
1507557235.3,286047002.9,N
1507557255.2,286047007.6,N
1507557275.9,286047007.0,N
1507557295.7,286047004.9,N
1507557315.5,286047005.4,N
1507557335.4,286047008.9,N
1507557355.2,286047011.2,Y
1507557375.0,286047003.2,P
1507557376.0,286047003.2,P
1507557395.8,286046999.3,P
1507557415.6,286047000.3,N
1507557435.4,286047002.3,N
1507557455.3,286047001.1,N
1507557475.1,286046999.2,N
1507557495.8,286047000.7,N
1507557515.7,286047001.8,N
1507557535.5,286047000.4,N
1507557555.3,286047002.6,N
1507557575.2,286047004.2,N
1507557595.9,286047005.7,Y
